Photometre #43[NE_1.6] Ben_Salem AOT

File : 20221126_43.hum

26/11/2022,06:57:10,TEMP=15.2,BA=5.44,STAT.A=10.0,ExtBa=10.40
26/11/2022,07:00:54,TEMP=15.4,BA=5.44,STAT.A=10.0,ExtBa=10.40
26/11/2022,07:05:20,TEMP=15.5,BA=5.44,STAT.A=10.0,ExtBa=10.30
26/11/2022,07:10:36,TEMP=15.6,BA=5.48,STAT.A=10.0,ExtBa=10.30
26/11/2022,07:17:01,TEMP=15.6,BA=5.48,STAT.A=11.0,ExtBa=10.40
26/11/2022,07:25:02,TEMP=15.6,BA=5.48,STAT.A=11.0,ExtBa=10.50
26/11/2022,07:35:19,TEMP=16.0,BA=5.48,STAT.B=11.0,ExtBa=12.90
26/11/2022,07:40:19,TEMP=16.7,BA=5.84,STAT.A=10.0,ExtBa=13.00
26/11/2022,07:45:58,TEMP=17.3,BA=5.84,STAT.A=11.0,ExtBa=13.30
26/11/2022,07:52:25,TEMP=17.5,BA=5.64,STAT.A=11.0,ExtBa=13.30
26/11/2022,07:59:55,TEMP=17.3,BA=5.64,STAT.A=11.0,ExtBa=11.00
26/11/2022,08:07:57,TEMP=16.6,BA=5.32,STAT.F,ExtBa=10.80
26/11/2022,08:22:55,TEMP=15.8,BA=5.48,STAT.D=11.0,ExtBa=10.70
26/11/2022,08:37:55,TEMP=15.4,BA=5.48,STAT.D=11.0,ExtBa=10.70
26/11/2022,08:52:55,TEMP=15.1,BA=5.48,STAT.D=11.0,ExtBa=10.70
26/11/2022,09:07:57,TEMP=14.8,BA=5.52,STAT.F,ExtBa=10.70
26/11/2022,09:22:56,TEMP=15.0,BA=5.52,STAT.D=10.0,ExtBa=10.80
26/11/2022,09:37:58,TEMP=15.3,BA=5.52,STAT.D=10.0,ExtBa=10.90
26/11/2022,09:52:56,TEMP=15.7,BA=5.52,STAT.D=10.0,ExtBa=11.10
26/11/2022,10:07:58,TEMP=16.8,BA=5.52,STAT.F,ExtBa=13.20
26/11/2022,10:22:56,TEMP=17.5,BA=5.52,STAT.D=11.0,ExtBa=13.60
26/11/2022,10:37:56,TEMP=18.0,BA=5.52,STAT.D=11.0,ExtBa=13.60
26/11/2022,10:52:56,TEMP=18.4,BA=5.52,STAT.D=11.0,ExtBa=13.60
26/11/2022,11:07:58,TEMP=19.1,BA=5.68,STAT.F,ExtBa=13.60
26/11/2022,11:22:56,TEMP=19.3,BA=5.52,STAT.D=11.0,ExtBa=13.50
26/11/2022,11:37:56,TEMP=19.4,BA=5.52,STAT.D=11.0,ExtBa=13.40
26/11/2022,11:52:56,TEMP=19.2,BA=5.56,STAT.D=11.0,ExtBa=13.60
26/11/2022,12:07:57,TEMP=19.7,BA=6.64,STAT.F,ExtBa=13.40
26/11/2022,12:22:56,TEMP=19.3,BA=5.52,STAT.D=11.0,ExtBa=11.00
26/11/2022,12:37:56,TEMP=18.8,BA=5.52,STAT.D=11.0,ExtBa=11.50
26/11/2022,12:52:56,TEMP=18.3,BA=5.52,STAT.D=11.0,ExtBa=11.60
26/11/2022,13:07:57,TEMP=17.9,BA=5.52,STAT.F,ExtBa=11.50
26/11/2022,13:22:55,TEMP=18.2,BA=5.52,STAT.D=11.0,ExtBa=12.00
26/11/2022,13:37:55,TEMP=19.2,BA=5.52,STAT.D=11.0,ExtBa=11.80
26/11/2022,13:52:55,TEMP=19.3,BA=5.52,STAT.D=11.0,ExtBa=13.20
26/11/2022,14:07:57,TEMP=18.5,BA=5.52,STAT.F,ExtBa=11.60
26/11/2022,14:18:50,TEMP=18.8,BA=5.40,STAT.A=11.0,ExtBa=10.50
26/11/2022,14:23:29,TEMP=18.3,BA=5.40,STAT.A=11.0,ExtBa=10.50
26/11/2022,14:29:56,TEMP=18.1,BA=5.40,STAT.A=11.0,ExtBa=10.90
26/11/2022,14:35:35,TEMP=18.5,BA=5.64,STAT.A=11.0,ExtBa=12.80
26/11/2022,14:40:35,TEMP=18.4,BA=5.52,STAT.B=11.0,ExtBa=11.20
26/11/2022,14:50:51,TEMP=18.1,BA=5.52,STAT.A=11.0,ExtBa=12.00
26/11/2022,14:58:53,TEMP=17.9,BA=5.52,STAT.A=11.0,ExtBa=11.50
26/11/2022,15:05:17,TEMP=17.7,BA=5.40,STAT.A=11.0,ExtBa=11.50
26/11/2022,15:10:33,TEMP=17.4,BA=5.52,STAT.A=11.0,ExtBa=11.20
26/11/2022,15:14:59,TEMP=17.3,BA=5.52,STAT.A=11.0,ExtBa=11.20
26/11/2022,15:18:42,TEMP=17.1,BA=5.52,STAT.A=11.0,ExtBa=11.00